Regional Weather Roundup
Issued by NWS Newport/Morehead, NC

Current Version | Previous Version | Graphics & Text | Print | Product List | Glossary On
Versions: 1 2 3 4 5 6 7 8 9 10 11 12 13 14 15 16 17 18 19 20 21 22 23 24 25 26 27 28 29 30 31 32 33 34 35 36 37 38 39 40 41 42 43 44 45 46 47 48 49 50
888 ASUS42 KMHX 301425 RWRMHX WEATHER ROUNDUP FOR EASTERN NORTH CAROLINA NATIONAL WEATHER SERVICE NEWPORT/MOREHEAD CITY NC 1000 AM EDT MON MAY 30 2016 NOTE: "FAIR" INDICATES FEW OR NO CLOUDS BELOW 12,000 FEET WITH NO SIGNIFICANT WEATHER AND/OR OBSTRUCTIONS TO VISIBILITY NCZ015>017-031-032-045>047-102-103-301500- NORTH COAST CITY SKY/WX TMP DP RH WIND PRES REMARKS EDENTON CLOUDY N/A N/A N/A SE3 30.03S ELIZABETH CITY CLOUDY 74 71 91 SE7 30.03S KITTY HAWK DRIZZLE 72 71 96 SE6 30.03F MANTEO NOT AVBL $$ NCZ045>047-081-094-103-104-301500- CENTRAL COAST CITY SKY/WX TMP DP RH WIND PRES REMARKS FRISCO LGT RAIN 72 70 93 S6 30.04R $$ NCZ095-097-098-100-101-301500- SOUTHERN COAST CITY SKY/WX TMP DP RH WIND PRES REMARKS BEAUFORT LGT RAIN 76 72 87 SE7 30.00F CEDAR ISLAND NOT AVBL JACKSONVILLE CLOUDY 78 72 81 E3 29.98S PINEY ISLAND NOT AVBL WILMINGTON PTSUNNY 80 69 69 SE12 29.96S $$ NCZ011>013-027>030-043-044-078>080-089-090>093-098-301500- COASTAL PLAIN CITY SKY/WX TMP DP RH WIND PRES REMARKS AHOSKIE CLOUDY 74 71 89 SE3 30.01F CLINTON MOSUNNY 79 72 80 E3 29.98S ELIZABETHTOWN PTSUNNY 78 70 76 E6 29.95F GOLDSBORO MOSUNNY 80 77 92 E6 29.98S GREENVILLE CLOUDY 77 72 83 SE3 30.02F HAVELOCK PTSUNNY 77 70 79 SE7 30.00F KENANSVILLE CLOUDY 76 73 90 CALM 29.99F FOG KINSTON CLOUDY 75 72 88 E5 30.00F NEW BERN MOSUNNY 75 71 87 E7 30.01F RICHLANDS PTSUNNY 77 74 90 NE5 29.99S ROCKY MOUNT CLOUDY 78 72 81 CALM 30.01S WASHINGTON LGT RAIN 74 72 92 SE3 30.01S WHITEVILLE RAIN 76 71 83 SE3 29.94F $$ AMZ130-135-150-152-154-156-158-170-250-252-270-ANZ085-086-088-633-658-670-301500- MARINE OBSERVATIONS STATION/POSITION TIME TEMP WIND PRES WAVE SWELL AIR SEA DIR/SP/G HT/PER HT/PER (UTC) (F) (DEG/KT/KT) (MB) (FT/S) (FT/S) CHESAPEAKE LIGHT 1400 70 170/ 7/ 7 1017.9 64 E VA BEACH 1350 68 63 180/ 16/ 19 1017.5 5/ 6 DUCK 1400 65 58 150/ 7/ 8 1016.4 2 E DUCK 1311 62 N/A 3/ 6 OREGON INLET 1400 72 77 130/ 4/ 7 1017.0 13E OREGON INLT 1400 66 N/A 4/ 7 3/ 7 HATTERAS CG 1400 71 76 120/ 3/ 6 1016.6 DIAMOND BUOY 1350 79 81 170/ 19/ 23 1016.3 5/ 8 2/ 8 CAPE LOOKOUT 1400 74 70/ 8/ 8 1015.7 BEAUFORT LAB 1400 76 75 120/ 10/ 11 1015.1 30 SE NEW RVR IN 1325 75 N/A 6/ 7 27 SE WRIGHTSVLE 1408 78 76 150/ 4/ 8 1014.8 5 SE WRIGHTSVLE 1408 77 76 180/ 8/ 10 1015.4 225 S CAPE HAT 1350 74 76 120/ 16/ 17 1016.6 5/ 8 2/ 8 41 SE CHARLESTON 1350 73 77 240/ 12/ 16 1013.4 4/ 8 3/ 8 $$

USA.gov is the U.S. government's official web portal to all federal, state and local government web resources and services.